Tracking 27380 objects as of 6-Jun-2023
HD Live streaming from Space Station
objects crossing your sky now

OPS 4682 DEB

Track OPS 4682 DEB now!
10-day predictions


NORAD ID: 38391
Int'l Code: 1965-027CU
Perigee: 1,245.6 km
Apogee: 1,312.0 km
Inclination: 90.2 °
Period: 111.0 minutes
Semi major axis: 7649 km
RCS: 0.0056 m2 (small)
Launch date: April 3, 1965
Source: United States (US)
Launch site: AIR FORCE WESTERN TEST RANGE (AFWTR)

Note: This is SATELLITE DEBRIS
Your satellite tracking list
Your tracking list is empty




NASA's NSSDC Master Catalog

Two Line Element Set (TLE):
1 38391U 65027CU  23156.24827526 -.00000174  00000-0 -62396-3 0  9990
2 38391  90.2289 345.1489 0043398  94.2487 266.3595 12.97556420456047
Source of the keplerian elements: AFSPC